BEIDOU 3G2Q

Last updated on April 22, 2019, 12:02 a.m. UTC

1 44204U 19023A   19110.85909737 -.00001292  13514-5  00000+0 0  9992
2 44204  28.4727  65.8375 7303417 179.7932 189.7510  2.28217424    06
UTC
Height (km)
Latitude
Longitude
Inclination
Orbital Period
UTC large
Height (km)
Speed (km/s)
/
Latitude / Longitude
Inclination (degrees)
Orbital Period (minutes)
Azimuth
Elevation
Range (km)
Doppler Factor
iOS Compass Heading
iOS Angle

Next 30 passes for location: Hong Kong

Rise time Rise Azimuth (degrees) Set time Set Azimuth (degrees) Duration Max altitude (degrees)

No matching passes for this satellites